TimeEST,TemperatureF,Dew PointF,Humidity,Sea Level PressureIn,VisibilityMPH,Wind Direction,Wind SpeedMPH,Gust SpeedMPH,PrecipitationIn,Events,Conditions,WindDirDegrees,DateUTC
12:15 AM,21.2,19.4,93,30.18,1.8,North,-9999.0,-,N/A,Snow,Light Snow,0,2014-01-29 05:15:00
12:35 AM,23.0,21.2,93,30.20,1.5,North,-9999.0,-,N/A,Snow,Light Snow,0,2014-01-29 05:35:00
12:55 AM,21.2,19.4,93,30.19,1.0,North,-9999.0,-,N/A,Snow,Light Snow,0,2014-01-29 05:55:00
1:15 AM,21.2,19.4,93,30.17,1.2,North,-9999.0,-,N/A,Snow,Light Snow,0,2014-01-29 06:15:00
1:35 AM,21.2,19.4,93,30.16,0.8,North,-9999.0,-,N/A,Snow,Light Snow,0,2014-01-29 06:35:00
1:55 AM,21.2,19.4,93,30.16,0.8,North,-9999.0,-,N/A,Snow,Light Snow,0,2014-01-29 06:55:00
2:15 AM,21.2,19.4,93,30.18,5.0,North,-9999.0,-,N/A,Snow,Light Snow,0,2014-01-29 07:15:00
2:35 AM,21.2,19.4,93,30.16,8.0,North,-9999.0,-,N/A,Snow,Light Snow,0,2014-01-29 07:35:00
2:55 AM,21.2,17.6,86,30.16,10.0,North,-9999.0,-,N/A,Snow,Light Snow,0,2014-01-29 07:55:00
3:15 AM,21.2,17.6,86,30.19,7.0,North,-9999.0,-,N/A,Snow,Light Snow,0,2014-01-29 08:15:00
3:35 AM,21.2,19.4,93,30.19,3.0,North,-9999.0,-,N/A,Snow,Light Snow,0,2014-01-29 08:35:00
3:55 AM,21.2,17.6,86,30.19,10.0,North,-9999.0,-,N/A,Snow,Light Snow,0,2014-01-29 08:55:00
4:15 AM,21.2,17.6,86,30.19,10.0,North,-9999.0,-,N/A,,Overcast,0,2014-01-29 09:15:00
4:35 AM,21.2,17.6,86,30.19,10.0,North,-9999.0,-,N/A,,Overcast,0,2014-01-29 09:35:00
4:55 AM,21.2,17.6,86,30.21,10.0,North,-9999.0,-,N/A,,Overcast,0,2014-01-29 09:55:00
5:15 AM,21.2,17.6,86,30.22,10.0,North,-9999.0,-,N/A,,Overcast,0,2014-01-29 10:15:00
5:35 AM,21.2,17.6,86,30.21,10.0,North,-9999.0,-,N/A,Snow,Light Snow,0,2014-01-29 10:35:00
5:55 AM,21.2,17.6,86,30.21,10.0,North,-9999.0,-,N/A,Rain,Freezing Rain,0,2014-01-29 10:55:00
6:15 AM,21.2,17.6,86,30.22,10.0,North,-9999.0,-,N/A,Rain,Freezing Rain,0,2014-01-29 11:15:00
6:35 AM,21.2,17.6,86,30.23,10.0,North,-9999.0,-,N/A,Rain,Freezing Rain,0,2014-01-29 11:35:00
6:55 AM,21.2,17.6,86,30.23,10.0,North,-9999.0,-,N/A,Rain,Freezing Rain,0,2014-01-29 11:55:00
7:15 AM,19.4,15.8,86,30.25,10.0,North,-9999.0,-,N/A,,Clear,0,2014-01-29 12:15:00
7:35 AM,19.4,15.8,86,30.25,10.0,North,-9999.0,-,N/A,Rain,Freezing Rain,0,2014-01-29 12:35:00
7:55 AM,19.4,15.8,86,30.26,10.0,North,-9999.0,-,N/A,,Clear,0,2014-01-29 12:55:00
8:15 AM,19.4,15.8,86,30.27,10.0,North,-9999.0,-,N/A,Rain,Freezing Rain,0,2014-01-29 13:15:00
8:55 AM,19.4,14.0,80,30.30,10.0,North,-9999.0,-,N/A,Rain,Freezing Rain,0,2014-01-29 13:55:00
9:15 AM,21.2,14.0,74,30.31,10.0,North,-9999.0,-,N/A,Rain,Freezing Rain,0,2014-01-29 14:15:00
9:35 AM,23.0,14.0,68,30.30,10.0,North,-9999.0,-,N/A,Rain,Freezing Rain,0,2014-01-29 14:35:00
9:55 AM,23.0,14.0,68,30.32,10.0,North,-9999.0,-,N/A,Rain,Freezing Rain,0,2014-01-29 14:55:00
10:15 AM,23.0,12.2,63,30.33,10.0,North,-9999.0,-,N/A,Rain,Freezing Rain,0,2014-01-29 15:15:00
10:35 AM,23.0,8.6,54,30.35,10.0,North,-9999.0,-,N/A,Rain,Freezing Rain,0,2014-01-29 15:35:00
10:55 AM,24.8,8.6,50,30.34,10.0,North,-9999.0,-,N/A,Rain,Freezing Rain,0,2014-01-29 15:55:00
11:15 AM,24.8,8.6,50,30.33,10.0,North,-9999.0,-,N/A,,Clear,0,2014-01-29 16:15:00
11:35 AM,24.8,8.6,50,30.34,10.0,North,-9999.0,-,N/A,,Clear,0,2014-01-29 16:35:00
11:55 AM,24.8,8.6,50,30.34,10.0,North,-9999.0,-,N/A,,Clear,0,2014-01-29 16:55:00
12:15 PM,24.8,8.6,50,30.33,10.0,North,-9999.0,-,N/A,,Clear,0,2014-01-29 17:15:00
12:35 PM,26.6,8.6,47,30.32,10.0,North,-9999.0,-,N/A,,Clear,0,2014-01-29 17:35:00
12:55 PM,26.6,5.0,40,30.32,10.0,North,-9999.0,-,N/A,,Clear,0,2014-01-29 17:55:00
1:15 PM,26.6,1.4,34,30.32,10.0,North,-9999.0,-,N/A,,Clear,0,2014-01-29 18:15:00
1:35 PM,26.6,1.4,34,30.31,10.0,North,-9999.0,-,N/A,,Clear,0,2014-01-29 18:35:00
1:55 PM,26.6,-0.4,31,30.31,10.0,North,-9999.0,-,N/A,,Clear,0,2014-01-29 18:55:00
2:15 PM,26.6,1.4,34,30.30,10.0,North,-9999.0,-,N/A,,Clear,0,2014-01-29 19:15:00
2:35 PM,26.6,-0.4,31,30.29,10.0,North,-9999.0,-,N/A,,Clear,0,2014-01-29 19:35:00
2:55 PM,26.6,-0.4,31,30.31,10.0,North,-9999.0,-,N/A,,Clear,0,2014-01-29 19:55:00
3:15 PM,28.4,1.4,31,30.31,10.0,North,-9999.0,-,N/A,,Clear,0,2014-01-29 20:15:00
3:35 PM,28.4,3.2,34,30.31,10.0,North,-9999.0,-,N/A,,Clear,0,2014-01-29 20:35:00
3:55 PM,28.4,1.4,31,30.31,10.0,North,-9999.0,-,N/A,,Clear,0,2014-01-29 20:55:00
4:15 PM,28.4,1.4,31,30.31,10.0,North,-9999.0,-,N/A,,Clear,0,2014-01-29 21:15:00
4:35 PM,26.6,3.2,37,30.32,10.0,North,-9999.0,-,N/A,,Clear,0,2014-01-29 21:35:00
4:55 PM,28.4,-0.4,29,30.32,10.0,North,-9999.0,-,N/A,,Clear,0,2014-01-29 21:55:00
5:15 PM,26.6,-0.4,31,30.32,10.0,North,-9999.0,-,N/A,,Clear,0,2014-01-29 22:15:00
5:35 PM,26.6,3.2,37,30.32,10.0,North,-9999.0,-,N/A,,Clear,0,2014-01-29 22:35:00
5:55 PM,26.6,1.4,34,30.33,10.0,North,-9999.0,-,N/A,,Clear,0,2014-01-29 22:55:00
6:15 PM,26.6,3.2,37,30.33,10.0,North,-9999.0,-,N/A,,Clear,0,2014-01-29 23:15:00
6:35 PM,26.6,1.4,34,30.34,10.0,North,-9999.0,-,N/A,,Clear,0,2014-01-29 23:35:00
6:55 PM,24.8,10.4,54,30.34,10.0,North,-9999.0,-,N/A,,Clear,0,2014-01-29 23:55:00
7:15 PM,26.6,5.0,40,30.35,10.0,North,-9999.0,-,N/A,,Clear,0,2014-01-30 00:15:00
7:35 PM,24.8,5.0,43,30.35,10.0,North,-9999.0,-,N/A,,Clear,0,2014-01-30 00:35:00
7:55 PM,24.8,5.0,43,30.34,10.0,North,-9999.0,-,N/A,,Clear,0,2014-01-30 00:55:00
8:15 PM,24.8,6.8,46,30.34,10.0,North,-9999.0,-,N/A,,Clear,0,2014-01-30 01:15:00
8:35 PM,24.8,3.2,40,30.34,10.0,North,-9999.0,-,N/A,,Clear,0,2014-01-30 01:35:00
8:55 PM,24.8,3.2,40,30.34,10.0,North,-9999.0,-,N/A,,Clear,0,2014-01-30 01:55:00
9:15 PM,24.8,5.0,43,30.34,10.0,North,-9999.0,-,N/A,,Clear,0,2014-01-30 02:15:00
9:35 PM,23.0,6.8,50,30.36,10.0,North,-9999.0,-,N/A,,Clear,0,2014-01-30 02:35:00
9:55 PM,23.0,8.6,54,30.36,10.0,North,-9999.0,-,N/A,,Clear,0,2014-01-30 02:55:00
10:15 PM,21.2,6.8,54,30.37,10.0,North,-9999.0,-,N/A,,Clear,0,2014-01-30 03:15:00
10:35 PM,19.4,6.8,58,30.36,10.0,North,-9999.0,-,N/A,,Clear,0,2014-01-30 03:35:00
10:55 PM,17.6,8.6,68,30.37,10.0,North,-9999.0,-,N/A,,Clear,0,2014-01-30 03:55:00
11:15 PM,17.6,8.6,68,30.37,10.0,North,-9999.0,-,N/A,,Clear,0,2014-01-30 04:15:00
11:35 PM,17.6,8.6,68,30.37,10.0,North,-9999.0,-,N/A,,Clear,0,2014-01-30 04:35:00
11:55 PM,15.8,8.6,73,30.37,10.0,North,-9999.0,-,N/A,,Clear,0,2014-01-30 04:55:00